GFSGBSN_sfc_rhum_000.txt.gz
RH
83 81 84 87 89 89 84 82 81 86 81 84 82 81 82 81 81 82 79 80 80 80 80 81 81 83 90 72 40 19 65 75 56 33 29 24 23 19 17 15 10 11 10 8 10 12 11
85 86 88 90 90 88 81 82 84 82 84 83 83 83 84 84 88 86 80 81 82 81 82 81 82 84 85 48 20 15 25 38 25 25 23 25 20 15 15 14 11 12 9 9 9 14 14
83 86 90 91 91 88 82 83 82 83 84 84 85 86 85 86 94 89 81 82 82 83 82 83 82 80 76 45 24 20 14 17 20 22 21 15 19 17 19 14 12 12 11 12 13 16 16
86 87 87 90 89 90 83 84 84 84 86 86 86 87 92 95 85 82 82 83 84 83 82 82 82 88 50 23 22 10 13 11 12 12 14 16 16 19 14 14 13 14 18 18 17 17 18
87 87 87 89 87 87 84 86 84 86 86 88 92 93 94 95 90 85 84 86 85 84 86 84 94 90 30 27 14 11 14 13 14 13 15 9 15 17 16 18 20 22 21 26 21 18 19
85 87 87 86 87 85 85 85 86 87 90 94 93 91 92 95 94 90 88 86 87 87 87 75 61 59 36 27 15 13 13 14 20 18 17 15 25 24 26 23 23 23 24 30 22 20 22
86 85 85 84 88 86 86 85 87 90 95 93 91 90 91 94 95 95 93 95 62 54 70 27 30 35 22 16 13 14 14 14 20 19 26 24 26 28 26 24 20 20 24 26 25 18 18
88 86 83 81 89 89 87 88 93 94 94 92 90 89 90 93 95 95 94 74 52 43 40 36 37 29 17 14 19 16 17 23 26 26 26 27 32 23 21 25 27 27 27 30 24 19 19
89 87 83 82 87 90 89 88 92 94 93 91 90 88 88 92 95 94 77 58 49 57 43 24 21 19 20 19 22 21 21 26 25 27 30 32 24 22 26 30 30 38 33 34 30 27 24
88 86 81 85 88 89 89 89 91 93 92 91 90 88 91 96 80 80 64 43 51 49 39 23 22 19 17 21 25 17 18 23 25 29 27 26 26 27 32 31 35 44 35 31 30 32 27
88 86 80 87 88 89 88 90 92 93 92 91 90 90 94 91 73 72 48 62 65 54 60 22 24 18 18 24 23 22 21 26 32 22 30 35 35 35 34 34 32 38 36 36 37 39 41
88 83 82 87 88 88 89 92 93 95 92 91 90 91 95 86 89 66 73 76 47 78 58 29 23 24 24 25 26 21 24 26 29 28 28 30 31 31 34 32 32 31 40 42 44 50 66
88 82 86 86 88 88 90 92 94 95 93 92 92 93 90 67 71 72 82 53 73 74 36 26 27 28 26 31 30 28 33 36 42 43 43 35 35 30 30 36 33 34 51 73 65 76 72
86 85 87 87 88 87 91 93 95 94 93 93 92 95 86 66 86 79 66 61 75 44 32 25 26 31 31 30 35 35 38 41 34 42 46 46 57 34 28 36 40 41 46 69 70 82 57
84 87 87 87 87 88 93 94 95 94 92 91 91 91 92 79 80 72 70 91 73 47 24 26 28 36 38 32 32 35 41 40 38 41 45 52 47 35 31 31 38 43 45 38 61 76 70
85 88 86 87 86 94 98 95 95 94 91 88 82 80 68 76 77 70 84 83 57 35 32 26 35 35 39 34 36 42 46 42 45 36 40 44 47 35 28 35 35 28 33 55 70 66 70
87 88 85 86 90 97 95 94 95 94 91 92 85 56 55 80 59 66 86 78 44 32 35 32 39 33 35 37 39 48 51 46 47 42 37 52 48 43 42 42 45 43 47 50 54 72 77
88 89 86 86 94 96 94 94 95 93 90 79 84 71 76 49 41 85 74 55 43 34 34 36 42 45 37 45 56 62 60 54 54 55 45 51 58 74 47 36 35 39 47 52 75 69 89
90 88 87 89 98 97 95 94 94 93 88 83 77 86 78 51 59 88 65 42 36 37 37 40 44 45 47 50 64 63 60 60 50 52 60 50 61 76 60 50 42 40 41 57 64 74 64
90 89 89 97 97 97 96 94 94 94 88 86 82 82 74 83 76 65 63 51 49 43 41 39 39 41 46 52 59 65 66 58 50 48 71 64 66 60 74 58 49 45 40 54 58 82 74
91 89 96 98 97 97 95 92 93 95 89 72 84 70 56 83 73 72 61 49 50 49 42 38 40 45 48 63 67 71 64 61 51 56 59 62 70 68 53 53 49 46 47 48 46 55 66
91 90 94 98 97 96 92 92 93 95 92 72 76 74 75 56 52 62 69 54 48 47 44 47 47 53 52 62 57 67 58 62 60 58 74 80 81 84 72 67 69 59 51 52 49 43 46
91 91 92 98 95 89 92 94 92 95 89 71 71 77 66 88 63 68 73 51 51 48 49 46 57 68 70 69 67 64 65 65 60 62 86 91 93 83 79 92 83 70 57 54 49 61 49
92 91 89 88 91 88 93 94 94 91 91 83 84 85 82 86 88 66 57 51 50 55 62 62 58 64 60 61 55 48 52 67 70 77 68 98 95 95 82 77 65 57 48 48 74 71 71
91 90 88 90 91 92 94 94 93 93 92 89 90 86 78 94 93 60 58 68 66 70 74 72 68 59 59 61 73 64 79 70 79 79 92 77 92 98 79 92 55 50 50 53 55 88 75
92 91 92 91 91 91 93 94 93 91 92 91 94 95 77 89 83 62 71 64 84 85 83 78 67 74 75 94 86 87 74 63 81 85 78 90 88 84 98 69 61 56 57 52 50 76 79
93 94 92 91 91 90 92 92 92 91 91 90 90 90 83 84 76 68 71 72 77 84 89 85 80 77 74 98 99 98 89 66 83 87 93 99 96 94 99 91 81 55 54 53 75 66 84
94 92 90 89 89 90 90 91 92 92 91 87 85 89 78 84 82 84 76 69 78 82 88 77 77 84 100 86 91 97 98 86 84 78 81 85 94 98 99 98 85 57 56 66 68 92 90
93 91 91 91 91 91 91 92 93 93 91 94 82 89 89 83 82 80 77 80 72 60 80 80 63 85 90 93 99 100 98 99 93 88 75 68 74 86 80 81 62 58 61 73 86 90 92

GFSGBSN_sfc_rhum_003.txt.gz
RH
80 85 86 87 88 90 86 81 81 83 81 82 81 81 83 82 80 84 82 84 85 79 80 79 80 81 93 77 41 22 78 77 41 29 24 22 25 23 18 17 19 11 11 12 13 10 10
80 87 88 88 90 89 86 83 84 84 85 84 82 82 83 82 82 86 87 84 81 80 79 80 80 81 86 40 20 19 39 35 30 30 28 23 20 21 21 15 10 11 13 11 15 14 12
87 88 89 89 92 92 91 84 87 82 83 85 84 84 86 83 83 89 86 85 80 81 81 82 81 80 75 32 26 28 24 27 25 23 22 23 22 21 16 18 13 12 12 14 14 18 16
87 88 89 91 93 92 91 82 87 86 84 87 85 85 84 85 87 83 82 82 81 81 82 82 81 88 44 25 29 20 14 12 15 21 19 13 16 17 17 15 16 17 19 19 16 19 21
87 88 90 91 92 91 90 86 87 84 85 86 86 86 94 93 90 83 83 83 83 83 83 83 95 92 31 25 15 12 14 14 15 15 16 10 16 19 18 18 20 23 23 25 22 18 22
87 89 90 91 91 89 89 88 85 87 86 88 90 95 95 95 94 85 85 85 84 86 86 78 70 57 32 21 16 14 14 14 19 21 18 19 26 23 26 18 18 21 24 44 22 21 24
87 89 90 90 90 88 85 87 86 88 89 95 95 94 94 96 95 91 89 93 65 62 82 25 29 37 31 26 14 14 15 16 20 22 27 28 26 28 26 27 22 23 26 24 28 22 39
88 89 89 88 87 88 90 89 89 94 94 95 94 90 94 96 95 96 98 78 50 48 53 38 42 36 29 19 21 18 20 22 23 28 29 27 32 27 27 32 30 27 30 34 28 33 42
90 90 89 87 85 90 92 90 93 93 94 94 92 90 94 96 96 98 78 51 56 52 50 24 30 25 20 18 22 23 23 27 27 29 30 30 29 24 28 33 34 41 39 34 31 38 40
90 90 89 86 84 92 93 91 91 93 94 93 91 90 95 96 90 77 65 51 59 42 40 26 23 17 20 23 25 20 21 23 29 31 28 30 33 30 33 32 37 43 38 33 33 43 52
90 90 88 85 87 92 92 90 91 93 94 92 90 92 96 89 77 81 53 72 65 48 57 24 24 17 19 25 24 20 23 27 28 29 32 39 39 36 34 36 36 41 38 36 35 40 42
90 89 87 84 90 91 90 89 91 94 94 92 91 94 98 93 96 66 77 65 44 74 52 33 25 26 23 26 28 24 28 29 31 32 32 36 34 33 37 35 35 32 42 47 54 54 68
90 88 86 86 90 90 89 90 92 95 94 92 91 96 87 72 75 81 76 50 66 81 36 30 31 29 31 33 31 33 36 38 42 44 49 36 36 33 35 40 38 39 51 71 64 75 75
88 87 85 88 90 90 89 91 94 94 93 92 95 97 92 74 88 80 59 52 76 47 38 28 31 34 34 34 39 39 40 41 38 45 50 48 55 35 29 38 42 44 48 72 66 82 58
86 86 85 89 90 90 92 93 94 94 92 95 97 96 94 88 86 70 66 87 73 53 30 29 34 40 42 35 36 40 47 43 43 43 48 51 47 35 33 33 40 46 49 45 70 76 72
86 84 88 90 90 91 95 95 94 93 92 94 89 80 68 81 67 67 82 82 66 45 35 31 40 39 41 38 41 48 51 48 50 43 42 43 43 38 30 37 37 34 38 55 71 64 71
86 86 89 90 90 96 97 95 95 94 93 93 74 48 48 77 49 56 80 79 61 32 40 34 36 39 39 39 45 55 57 52 54 48 42 53 44 43 42 44 47 44 47 55 62 75 76
86 89 88 90 93 98 94 95 95 94 94 82 76 52 72 48 46 88 68 62 54 36 34 43 46 44 43 52 62 64 61 60 59 57 46 55 58 74 48 39 41 43 50 50 68 68 89
89 88 89 91 97 95 95 95 95 92 88 86 77 94 84 46 63 89 60 58 45 40 41 44 47 50 53 61 66 67 65 61 50 53 56 50 63 75 62 49 42 45 48 58 63 76 78
89 88 90 96 97 96 95 95 95 91 90 83 77 90 77 82 68 46 56 54 53 45 46 42 44 47 51 63 66 70 70 62 53 50 72 62 66 58 69 59 52 45 46 57 55 77 70
89 90 98 96 96 97 96 94 94 92 88 76 84 68 66 89 84 83 61 58 52 50 45 41 44 48 53 69 74 77 70 62 52 63 69 59 62 70 63 62 53 49 44 55 58 59 66
90 97 98 97 96 98 92 93 94 93 87 75 85 73 76 59 55 69 78 60 48 50 46 50 48 62 56 62 56 69 60 61 59 67 81 73 83 80 80 72 71 58 47 50 51 51 59
91 95 98 97 96 90 90 92 94 92 82 73 84 86 65 89 73 72 78 57 52 50 58 54 57 64 69 71 68 73 72 69 66 68 85 85 92 70 59 88 76 54 56 52 51 64 61
92 93 95 91 90 89 92 92 93 92 87 76 90 83 84 92 76 63 61 58 56 52 61 66 60 65 60 60 56 53 61 78 79 89 73 98 96 89 82 76 53 42 52 52 57 76 77
92 90 89 90 91 93 94 94 93 92 88 77 88 80 77 95 83 72 68 74 72 78 80 78 73 65 60 56 77 72 80 72 82 88 90 78 92 97 76 82 51 39 61 74 64 68 77
91 90 90 90 90 92 94 94 93 92 94 76 94 91 77 90 86 62 74 69 84 84 84 80 76 75 70 91 84 74 69 65 84 88 86 84 86 77 97 62 50 44 61 54 53 72 79
91 91 90 92 91 91 92 92 93 92 93 77 91 92 78 84 80 70 73 72 77 83 89 85 80 79 70 95 94 96 86 67 83 91 94 99 98 86 100 83 72 53 55 54 71 62 81
91 89 90 90 91 91 92 93 93 92 92 77 90 91 75 88 87 85 71 77 77 81 87 79 78 83 92 82 86 94 98 88 84 78 86 90 94 99 97 97 70 56 59 67 66 84 80
90 89 91 91 92 93 94 96 96 94 94 89 82 93 91 82 80 82 81 80 74 60 82 83 68 78 89 92 97 99 98 99 91 86 76 76 70 82 76 76 60 58 64 66 76 83 89

GFSGBSN_sfc_rhum_009.txt.gz
RH
91 90 90 89 81 84 86 88 89 84 80 85 86 80 82 80 80 85 79 79 82 77 78 78 76 76 84 78 50 41 82 76 52 24 20 22 23 23 25 23 17 16 12 11 10 10 21
92 92 91 88 83 82 87 88 90 90 81 84 87 80 85 82 82 84 78 82 81 78 78 78 75 77 88 49 21 49 61 51 34 22 22 20 19 20 20 17 17 16 10 11 11 10 10
92 93 90 88 84 83 89 91 92 93 86 84 85 82 86 80 85 80 82 79 84 83 79 76 74 76 91 44 22 43 37 35 29 23 25 22 19 19 21 18 12 11 11 12 13 12 13
92 92 89 87 85 88 91 92 93 93 90 85 84 83 82 87 85 80 82 85 86 81 80 81 80 81 68 34 33 29 29 24 28 24 21 22 21 20 18 15 16 13 16 14 12 14 16
92 91 89 88 88 91 92 92 93 93 87 87 82 82 83 86 86 81 84 85 83 76 78 84 88 92 50 30 22 16 16 16 25 27 25 19 22 24 15 17 18 20 15 17 16 27 17
93 91 88 88 90 91 92 92 93 93 87 88 83 84 87 88 89 89 88 84 79 82 81 76 78 75 36 19 23 14 14 15 18 25 24 23 21 20 19 15 19 19 18 17 18 26 35
92 91 88 89 90 91 90 90 92 92 86 88 86 84 90 91 93 90 90 84 77 76 92 44 40 35 25 22 18 14 16 21 20 23 26 24 22 22 20 18 15 17 17 19 25 39 48
86 91 89 88 89 90 89 89 91 89 87 87 87 92 96 93 94 89 86 89 46 44 57 60 51 43 35 28 22 16 19 22 26 26 22 24 28 22 26 27 23 24 28 36 41 42 45
87 92 89 88 88 90 90 90 91 88 90 95 95 95 95 94 93 92 89 85 55 50 57 34 44 34 25 26 22 18 21 26 23 26 26 30 24 28 28 30 33 32 31 37 39 44 42
86 90 91 88 88 90 90 90 91 91 94 94 94 95 97 95 91 92 86 62 67 60 44 32 23 20 22 22 28 19 21 23 27 28 33 32 30 29 29 31 30 35 31 41 47 40 40
87 88 93 89 89 91 92 91 91 95 95 93 94 95 96 84 86 80 60 74 62 51 63 28 21 17 21 22 21 22 26 23 29 30 29 34 33 30 33 32 34 36 40 37 34 34 36
85 84 94 90 91 92 92 90 91 94 93 93 95 96 95 89 91 82 74 62 52 68 63 29 24 24 27 28 28 26 27 28 29 34 33 33 28 29 29 35 34 40 39 41 44 40 47
85 84 88 91 91 92 90 90 91 93 92 94 95 96 89 84 79 86 78 51 66 71 38 32 30 27 30 36 34 33 36 39 34 43 44 33 32 28 32 33 33 36 40 50 50 58 50
83 86 87 92 91 91 89 89 92 93 93 95 95 96 90 87 83 86 58 48 55 46 44 29 32 31 33 35 38 36 36 38 37 38 43 35 40 28 29 31 34 38 39 57 62 64 46
81 89 90 92 90 90 88 90 92 93 94 95 97 94 96 89 84 84 55 79 53 52 34 33 32 35 42 36 37 40 41 40 38 37 41 45 38 28 32 30 31 36 40 41 60 61 56
81 89 92 92 89 88 88 90 93 94 96 98 95 96 84 87 89 67 68 60 53 52 41 35 36 40 43 41 41 40 43 45 41 43 38 42 40 35 31 32 35 33 37 43 51 60 54
81 87 91 92 88 87 88 92 94 95 95 95 85 76 64 82 63 58 71 57 61 54 42 35 40 43 41 42 46 45 45 47 48 41 38 36 44 42 36 37 37 38 42 53 48 56 47
82 89 92 91 88 87 89 92 91 96 96 98 75 60 71 62 56 73 62 59 63 50 42 45 39 42 44 51 53 53 51 49 56 52 42 44 55 58 36 35 38 35 39 42 52 49 66
88 93 93 89 86 86 91 92 92 95 93 91 67 89 85 60 67 87 56 54 55 46 44 45 50 51 56 60 60 60 58 56 49 46 49 46 56 62 43 33 35 37 44 46 54 66 68
89 91 93 88 87 88 92 94 94 96 93 82 83 92 85 71 62 50 48 51 49 50 48 46 50 53 59 62 63 68 63 55 57 58 79 58 53 52 51 40 43 45 50 44 42 59 56
91 93 93 87 88 92 95 97 96 95 95 88 78 81 82 92 72 53 44 46 50 54 46 44 49 50 56 67 67 70 60 53 57 70 65 50 56 54 59 58 49 38 46 47 40 44 52
94 95 90 90 92 93 95 96 96 95 95 89 75 76 71 76 70 54 60 58 52 49 52 49 51 58 55 61 52 67 59 52 49 65 63 61 67 64 68 64 59 51 42 44 51 50 44
93 92 92 93 93 94 94 95 96 94 86 81 92 76 63 86 86 67 75 57 52 54 66 56 53 59 63 63 63 67 66 68 63 63 70 66 81 60 57 65 54 60 51 45 48 45 45
92 92 94 95 94 94 95 96 96 92 85 79 86 77 78 85 84 68 68 61 56 54 59 64 58 61 68 64 61 56 64 73 68 72 65 82 72 69 74 74 61 35 44 41 42 43 43
95 95 95 95 96 97 95 95 95 91 88 90 94 75 73 97 74 65 70 74 75 78 79 76 78 69 66 61 76 69 80 75 83 73 64 63 76 81 80 61 45 31 42 57 58 40 48
97 96 98 96 94 94 95 95 96 92 88 90 95 86 76 84 76 55 76 72 84 84 84 88 74 65 63 82 81 80 74 63 59 76 76 69 77 72 77 68 61 42 34 53 44 55 46
96 94 93 94 95 95 95 95 95 92 88 87 95 87 78 81 81 70 72 73 74 79 87 81 74 77 64 84 92 81 68 61 56 76 94 98 94 81 81 80 61 41 46 47 57 51 62
92 92 93 93 95 95 95 95 93 89 86 86 95 93 76 90 88 82 71 76 77 78 84 82 76 82 86 89 92 82 92 77 70 65 87 76 86 88 86 78 66 45 50 65 60 60 60
91 92 93 96 98 99 98 98 94 86 86 90 91 97 89 83 84 83 79 78 76 62 79 85 70 76 78 86 89 96 100 98 86 78 73 72 70 74 65 67 53 48 62 56 57 56 57

GFSGBSN_sfc_rhum_012.txt.gz
RH
92 91 91 91 91 89 85 85 90 91 89 82 86 87 85 82 82 84 85 87 84 84 81 79 73 75 63 45 24 30 80 72 30 16 13 13 13 12 12 13 13 14 11 9 9 14 18
94 93 93 92 91 89 84 83 89 91 92 83 82 87 88 85 84 84 86 87 85 82 80 76 77 76 58 32 15 27 31 30 19 14 14 13 12 11 11 14 13 12 9 8 8 14 13
87 94 94 93 92 89 86 85 90 91 92 92 78 86 90 87 86 86 86 85 86 83 79 76 74 62 60 25 15 25 24 20 16 14 16 13 12 12 13 16 10 9 10 9 9 13 13
84 88 94 94 92 89 87 88 90 91 93 93 83 87 89 88 88 86 86 86 87 80 79 78 77 67 39 21 17 21 18 20 20 14 14 16 16 15 16 11 9 9 10 12 11 10 11
82 86 94 94 92 88 87 89 91 92 92 92 83 88 89 88 87 87 86 85 83 76 73 80 71 68 25 27 18 12 16 12 19 19 18 15 17 17 15 14 11 12 10 11 12 15 11
78 83 89 93 92 88 89 90 91 92 92 91 83 87 88 89 88 89 84 81 78 81 74 62 56 62 26 14 15 11 10 12 15 21 20 19 16 16 13 10 13 12 10 9 10 18 10
81 85 84 93 91 89 88 90 92 92 92 89 83 87 88 90 91 89 78 60 62 63 70 28 23 28 15 14 14 9 9 13 14 16 19 19 16 15 13 11 10 10 11 11 15 26 22
80 81 85 92 91 89 89 89 92 92 92 87 86 89 92 93 93 88 67 52 33 41 33 34 32 30 21 20 17 10 12 14 16 14 17 20 17 17 17 14 13 12 12 17 24 28 25
80 82 83 86 91 90 89 89 92 92 91 87 89 92 93 95 91 81 63 48 37 38 41 29 30 20 18 19 14 11 11 16 15 15 16 15 19 21 18 17 16 18 16 23 18 27 25
80 83 84 84 93 90 90 90 92 91 89 88 94 94 96 94 79 56 55 35 34 46 28 21 18 17 16 16 15 14 14 14 20 18 20 21 21 20 18 20 21 22 21 21 27 22 20
78 83 85 82 91 91 91 92 92 91 90 94 94 94 96 86 60 49 45 49 51 46 43 18 15 12 15 16 14 18 18 16 18 21 23 26 22 21 20 23 24 25 25 25 24 21 24
78 82 84 82 89 93 92 93 92 91 93 94 93 95 95 82 68 55 52 52 47 51 37 20 15 17 19 18 19 19 19 18 20 22 21 24 21 21 23 26 24 26 26 26 25 24 33
78 82 80 83 89 93 92 93 91 91 93 93 94 96 90 59 47 60 68 48 44 46 24 20 18 17 18 20 22 22 22 23 21 28 28 23 23 21 23 26 27 25 25 30 30 38 36
80 82 81 85 87 92 92 92 91 91 93 93 94 97 90 60 51 68 51 35 39 24 24 19 18 18 22 21 25 25 25 24 25 22 23 20 31 22 23 24 23 26 24 29 37 42 23
79 81 81 82 84 93 92 91 90 92 94 94 96 93 86 67 72 70 42 66 34 28 22 21 20 21 25 25 21 26 27 25 26 26 21 25 26 22 26 24 22 28 30 28 41 47 42
79 80 81 83 86 93 93 90 90 93 94 95 79 82 58 62 69 61 52 44 26 32 27 21 21 20 25 25 22 22 28 29 30 29 28 28 31 26 26 24 26 24 24 34 36 50 40
80 78 78 83 88 91 94 89 90 94 94 92 63 55 65 71 61 49 54 34 31 36 33 25 21 24 21 29 24 23 24 32 31 28 25 23 27 33 30 27 25 29 27 29 27 40 29
82 78 77 80 89 90 94 89 91 94 92 95 58 52 70 56 48 36 38 29 51 34 33 29 26 24 26 29 29 29 28 29 38 30 29 29 32 45 29 28 28 25 24 22 30 34 46
84 81 80 81 88 90 94 90 93 95 92 77 50 59 63 51 55 71 37 31 36 31 28 32 29 29 35 35 40 37 36 40 37 34 33 32 37 44 35 31 28 28 27 24 33 45 44
81 83 82 84 87 91 93 89 90 91 89 57 44 71 64 41 35 34 34 32 29 35 32 32 37 37 40 41 42 47 45 41 42 40 73 46 37 37 40 27 27 36 31 26 22 39 30
83 83 83 86 88 94 91 91 92 92 90 66 50 48 41 75 48 32 30 28 27 36 32 32 36 34 36 50 46 48 43 41 45 66 46 37 41 37 34 36 32 28 28 28 26 26 34
83 85 87 91 90 95 92 94 92 93 92 70 53 50 50 42 39 32 40 29 25 33 34 32 34 37 37 45 34 47 40 37 37 47 43 44 50 48 50 42 37 37 26 26 26 24 27
84 84 87 94 91 94 93 93 92 92 87 54 55 47 36 74 41 36 36 29 26 37 48 38 33 40 45 44 44 41 42 40 37 43 51 51 63 49 42 48 46 74 41 26 26 25 28
82 86 91 93 91 92 94 95 92 91 73 43 50 41 49 69 52 38 29 26 37 36 44 46 39 42 54 43 41 41 44 43 41 47 42 64 54 59 68 70 83 21 27 26 25 23 21
84 92 94 94 91 92 92 93 92 94 86 53 58 44 46 100 49 40 34 28 40 48 55 51 56 49 45 46 56 56 70 79 69 48 44 42 53 75 92 46 31 15 22 28 35 21 20
94 94 92 92 94 93 92 94 96 94 90 62 64 59 46 73 63 32 35 45 58 55 64 68 58 51 45 62 69 71 61 44 52 57 54 47 55 55 72 89 89 29 26 38 34 32 29
96 95 95 94 95 96 96 96 94 91 89 65 64 75 44 45 45 45 42 50 46 52 60 63 62 64 49 75 100 80 58 44 44 64 92 80 84 87 70 92 46 27 30 36 41 35 34
98 97 96 96 95 95 95 96 95 92 88 71 74 76 56 55 56 57 49 53 55 50 65 60 57 64 70 91 92 69 90 56 48 44 60 58 74 91 77 96 79 29 40 52 42 42 39
95 94 94 94 95 95 95 95 94 90 86 83 65 74 66 55 65 63 64 61 54 40 48 57 50 53 52 70 83 89 97 96 72 64 51 55 51 54 47 44 35 33 37 36 41 44 40

GFSGBSN_sfc_rhum_018.txt.gz
RH
77 80 84 87 93 92 91 90 89 88 88 89 89 89 85 81 79 81 80 81 86 84 81 80 74 75 63 47 30 32 78 62 22 20 18 11 10 10 12 10 9 10 11 10 27 36 31
74 76 81 85 88 94 92 91 91 89 88 89 90 90 86 85 83 78 84 82 86 82 82 76 73 78 62 40 11 20 25 25 13 16 14 8 9 9 10 8 9 10 11 11 16 35 19
74 74 78 82 89 88 94 93 92 90 88 89 90 90 88 86 86 84 86 79 86 86 81 73 73 57 46 29 12 14 14 13 13 15 11 9 9 11 11 11 9 11 13 11 14 14 21
76 77 78 80 85 90 94 95 93 91 89 89 90 90 89 86 88 88 87 82 84 80 76 74 73 57 44 16 14 12 14 13 11 11 10 11 12 13 15 15 12 12 14 19 13 14 16
75 75 77 79 82 85 90 95 94 91 89 89 89 90 88 87 87 88 86 84 81 78 75 74 69 56 34 26 15 10 11 15 14 13 12 11 14 17 16 20 17 14 16 18 17 12 13
73 73 74 79 80 83 86 93 94 92 90 89 89 90 88 87 88 88 88 81 78 77 71 45 39 46 32 16 11 8 9 11 15 16 17 18 18 19 19 19 20 18 15 14 14 11 13
72 73 72 75 80 80 83 86 95 93 91 90 89 90 87 87 88 90 83 60 57 63 50 28 23 24 11 9 10 9 9 13 14 19 23 19 22 22 22 18 14 14 14 14 10 10 11
75 78 75 75 75 78 80 86 94 93 91 90 90 90 87 87 90 91 73 51 30 38 46 29 17 19 14 13 15 10 8 14 19 22 18 17 21 17 16 15 15 12 13 12 10 8 10
75 77 78 76 76 79 78 84 93 94 93 91 90 89 88 90 94 85 61 42 26 30 42 24 15 15 15 12 13 10 9 11 16 17 20 31 32 27 13 16 13 12 15 17 13 11 8
75 76 79 79 77 78 79 82 88 95 94 92 91 89 90 94 87 54 53 36 35 41 46 24 17 15 13 13 14 8 8 11 20 21 20 22 24 18 14 11 10 19 19 16 15 20 21
77 74 77 78 78 77 81 84 86 95 94 92 92 91 95 90 66 43 36 26 35 51 63 17 16 10 11 14 10 11 8 11 16 24 21 24 32 17 15 22 18 23 23 19 15 15 34
77 77 75 76 78 79 82 85 87 96 94 93 91 92 96 91 73 57 47 54 52 72 59 19 13 15 14 12 10 9 12 10 11 14 19 26 20 18 22 18 16 20 22 19 15 18 58
71 73 77 74 76 80 80 85 88 94 95 93 92 94 91 55 52 43 53 69 67 59 17 17 17 14 14 15 13 12 15 15 17 22 30 20 16 12 15 14 16 15 18 30 59 57 46
70 73 78 80 77 80 81 84 88 95 96 94 94 95 91 59 48 57 68 92 61 27 23 10 12 13 16 14 13 13 16 15 13 14 17 33 35 16 13 14 30 26 16 38 83 83 35
65 73 78 82 84 80 80 84 87 95 96 95 95 90 84 73 71 71 91 94 52 24 16 14 12 16 16 13 13 14 15 15 12 14 44 54 38 26 17 14 14 15 23 17 28 69 43
66 74 80 77 82 83 80 83 86 95 96 95 73 82 69 67 70 74 96 70 37 21 12 13 16 14 18 16 16 16 16 12 12 13 38 63 69 28 19 17 17 20 16 32 31 51 46
72 77 77 72 81 86 81 82 87 95 96 91 63 68 49 62 71 80 82 57 37 19 15 17 15 14 15 18 15 16 16 18 20 17 16 16 30 25 22 22 15 22 22 21 19 40 63
75 82 75 75 77 84 83 81 85 95 94 95 65 67 58 67 64 48 67 41 35 21 17 19 17 14 15 17 18 16 17 16 17 16 20 17 22 50 24 16 16 18 24 20 64 43 55
77 77 75 75 76 84 83 81 83 94 94 84 61 66 71 64 58 74 50 38 28 24 23 25 20 18 15 18 22 18 16 32 29 21 23 22 29 48 31 24 21 23 16 17 22 50 56
77 76 77 77 80 80 82 80 83 94 93 81 56 84 98 90 37 49 53 38 32 23 20 20 20 17 17 18 17 21 20 33 32 27 59 44 26 30 49 28 25 30 22 16 20 67 58
77 77 79 79 80 87 80 81 82 93 93 96 75 58 66 92 66 50 45 34 30 26 21 20 21 18 23 28 23 26 22 37 34 53 33 31 37 28 22 19 23 25 21 19 19 23 37
77 78 82 81 80 87 78 83 87 92 94 98 77 50 49 51 50 53 55 42 30 22 26 27 27 20 22 28 25 28 25 36 37 38 33 34 49 49 52 28 25 28 22 20 19 17 18
75 81 82 83 83 82 72 74 84 91 96 91 57 56 47 63 55 58 59 39 30 25 25 21 23 24 26 30 29 34 36 32 28 40 44 47 72 70 64 39 45 61 46 28 24 17 18
75 78 85 87 80 77 76 77 88 95 94 59 53 60 76 67 52 49 45 30 26 25 33 25 25 29 37 29 32 32 30 32 33 38 33 70 69 74 79 77 77 24 15 16 19 17 15
76 80 79 81 79 80 82 85 88 92 96 76 76 91 85 93 49 40 38 30 26 24 31 30 41 37 34 37 55 61 79 74 51 29 34 39 67 80 98 62 34 23 17 18 21 22 20
78 80 82 83 84 81 80 83 89 92 91 88 83 93 94 69 59 31 32 29 38 52 54 54 40 39 39 63 82 64 67 44 51 46 31 36 64 80 73 90 85 39 23 22 21 35 22
81 81 82 84 83 85 85 92 94 87 89 90 89 93 98 65 39 34 33 35 30 49 57 54 56 56 48 92 100 80 70 31 59 68 91 82 86 90 78 95 70 23 22 22 49 54 32
80 82 86 85 86 89 90 90 90 86 91 95 89 86 98 60 38 32 26 30 32 44 70 56 57 55 78 87 93 78 92 65 55 36 61 70 84 95 86 100 90 22 25 47 50 42 34
83 87 86 86 87 91 90 91 93 92 94 91 95 83 83 70 62 58 54 46 43 28 49 58 45 51 58 64 79 88 99 96 75 76 30 59 53 70 59 67 40 25 29 28 31 37 36

GFSGBSN_sfc_rhum_024.txt.gz
RH
74 74 78 80 84 85 84 88 94 94 92 90 89 88 89 89 88 88 89 85 79 79 87 83 83 80 86 75 60 50 75 75 43 29 28 26 34 31 26 19 19 19 24 38 41 42 42
77 79 79 80 80 83 79 88 89 95 94 93 90 89 89 90 90 90 90 88 85 83 88 86 82 80 87 54 36 49 45 36 29 29 28 28 28 22 18 18 20 19 34 38 45 36 35
76 77 80 81 83 83 83 89 89 91 96 94 92 90 89 90 90 89 90 90 89 89 88 86 80 71 79 37 37 44 29 28 22 24 26 23 21 24 29 24 23 21 34 43 48 42 38
76 79 78 80 84 85 87 87 90 89 94 95 93 91 90 90 90 89 90 90 90 90 89 85 79 85 70 37 42 28 30 23 21 21 21 20 21 23 29 25 24 21 21 44 42 45 36
76 77 80 80 81 85 87 87 87 88 91 95 95 92 90 90 90 89 90 91 91 89 87 86 90 90 70 40 34 31 24 21 21 21 22 15 24 30 26 33 34 29 27 27 40 38 36
75 76 77 79 80 81 83 86 88 89 90 94 95 93 90 90 89 89 91 90 89 90 79 69 64 68 47 29 27 20 23 21 24 27 26 30 32 36 35 35 39 30 25 28 26 22 37
75 68 76 76 78 80 78 80 86 88 91 93 95 93 89 89 88 88 92 93 78 84 85 52 36 42 26 24 20 16 18 20 26 28 37 38 36 41 34 32 27 24 28 24 22 19 24
76 77 76 70 68 74 78 78 80 87 88 93 94 93 89 88 88 90 93 90 64 56 70 54 48 43 31 30 26 20 17 23 31 36 45 38 42 32 28 28 31 35 28 28 23 18 19
77 77 77 67 72 73 77 79 78 83 86 93 95 94 90 87 91 96 96 82 56 54 75 55 50 48 40 25 27 23 18 24 32 36 36 37 30 29 29 27 35 34 30 32 28 16 21
76 74 77 77 75 77 78 81 79 84 88 91 96 94 92 92 85 87 94 72 71 65 87 56 44 40 21 21 28 20 16 20 32 34 35 34 32 32 35 35 33 36 24 28 26 28 26
87 77 74 76 76 76 78 79 82 82 87 90 97 95 93 82 91 88 68 66 71 73 79 33 40 22 18 25 24 20 16 20 29 32 31 33 37 35 34 32 29 28 30 29 31 34 41
80 83 78 74 74 77 78 79 79 82 87 90 96 95 94 94 97 87 68 71 85 89 86 44 27 26 26 26 24 22 17 22 26 32 36 32 30 29 30 30 26 25 31 38 47 47 64
74 83 80 76 73 75 75 79 80 82 86 90 96 96 89 78 81 83 78 85 95 92 39 36 30 27 28 29 28 25 25 27 35 41 44 33 33 31 33 33 30 30 37 50 50 73 66
72 88 83 81 76 72 72 80 78 79 85 90 97 97 90 75 84 88 91 95 93 61 56 32 28 27 30 28 28 26 28 29 30 30 45 42 49 41 38 35 40 38 37 59 52 80 57
73 79 82 84 80 75 73 79 80 74 83 88 98 99 96 83 87 84 98 97 77 67 35 33 29 34 33 28 24 26 30 30 24 24 37 55 50 45 42 38 37 41 42 40 72 83 82
73 78 81 82 84 80 78 81 84 80 81 87 97 99 93 84 79 87 98 78 68 50 40 33 36 32 36 30 29 28 28 26 26 23 37 48 53 49 42 35 39 40 30 47 64 73 77
74 76 77 76 77 78 76 77 80 81 75 85 97 95 81 81 83 96 90 75 59 44 44 48 44 40 29 31 28 33 27 22 25 42 42 53 47 55 48 44 41 41 38 39 46 63 64
76 74 78 77 76 75 74 75 77 78 79 87 95 95 85 79 94 80 86 67 60 49 47 54 48 46 32 32 33 34 32 28 32 42 42 49 59 82 55 34 36 39 37 43 67 45 81
76 74 76 80 86 82 77 77 79 78 80 88 94 91 87 73 86 93 72 63 56 49 52 52 47 42 33 35 36 37 37 49 43 36 43 46 53 67 49 34 42 34 32 41 52 70 63
78 75 74 79 88 84 76 77 82 86 80 91 93 96 99 91 63 58 72 73 71 48 52 51 51 48 41 42 45 47 54 51 54 45 62 52 47 46 56 39 41 48 41 38 46 75 65
81 77 77 80 84 78 76 76 79 86 83 93 95 74 75 93 88 62 58 64 70 60 50 47 49 50 50 46 52 40 56 56 52 63 54 47 48 47 42 46 44 42 41 40 39 43 53
81 78 79 78 78 77 76 81 76 87 91 97 92 83 79 87 69 73 62 60 56 51 48 47 53 49 45 39 41 47 54 58 51 56 48 54 57 70 65 51 48 48 40 42 40 39 42
81 76 76 77 76 77 79 79 81 84 95 97 90 83 78 74 76 81 65 56 47 43 50 40 42 45 50 39 46 48 49 51 53 54 62 62 76 75 68 61 54 68 48 39 38 38 38
80 78 79 78 78 78 82 82 86 83 90 96 89 92 89 87 80 78 58 49 48 46 48 44 37 49 51 50 51 52 57 67 67 71 62 72 75 83 83 70 70 48 35 34 39 39 40
78 78 77 76 75 79 81 82 87 86 88 98 97 94 98 96 79 75 62 50 45 46 58 43 55 47 50 61 75 71 85 68 66 60 68 67 84 91 74 78 58 39 35 34 38 49 43
78 77 77 78 79 80 80 80 82 82 84 95 95 98 99 100 84 60 64 49 55 62 59 76 72 74 70 94 82 74 72 62 70 57 57 73 82 83 95 78 67 53 41 35 36 64 46
79 79 80 79 80 79 80 81 83 86 86 92 93 94 97 99 82 56 62 55 43 76 63 88 79 77 77 99 95 84 83 58 77 74 78 88 90 82 97 84 72 50 41 35 43 48 48
81 80 80 80 81 83 84 82 86 88 84 88 93 96 95 97 89 89 51 48 51 68 82 83 87 89 98 91 92 92 87 82 82 72 75 73 90 94 96 94 68 51 38 42 51 60 52
82 81 84 85 86 84 84 86 87 88 83 86 98 92 91 99 95 92 80 80 43 58 82 88 75 82 86 92 99 98 93 95 81 90 69 64 72 82 75 77 58 46 47 55 52 50 52

GFSGBSN_sfc_rhum_027.txt.gz
RH
74 75 79 80 82 84 80 85 89 93 96 93 91 90 89 89 90 91 91 91 90 87 84 84 85 83 89 60 39 52 77 78 63 34 30 27 34 36 31 24 24 22 19 24 43 50 52
70 78 80 81 81 80 74 83 90 89 92 95 94 91 90 89 90 91 91 91 91 90 87 85 84 82 90 31 35 52 55 47 35 32 28 29 30 27 27 22 22 22 36 48 48 47 40
74 77 81 81 83 83 83 84 87 91 91 96 96 94 92 90 90 91 90 90 91 90 88 86 83 77 86 30 43 48 37 36 29 27 29 28 29 30 27 25 27 30 48 48 48 46 42
77 78 78 81 82 85 86 86 87 88 90 94 96 95 94 92 90 91 90 91 91 90 88 85 80 88 83 35 48 40 36 29 24 24 22 23 27 29 30 25 27 24 34 37 40 44 44
76 78 79 78 82 83 85 87 87 86 87 89 94 96 95 93 92 91 90 90 91 90 87 88 92 92 68 40 41 39 29 28 22 23 24 18 26 32 28 35 34 30 30 35 40 42 41
76 75 77 80 78 82 83 83 86 87 88 90 92 96 96 92 92 90 90 90 89 88 83 72 69 65 40 29 28 27 35 27 28 31 28 32 35 37 38 36 39 39 31 31 35 38 49
77 77 76 78 80 79 78 79 83 88 89 90 92 94 96 91 90 88 92 92 71 81 78 41 34 35 30 29 26 25 25 27 30 31 40 38 38 42 38 36 35 33 36 35 28 22 42
80 74 77 76 76 79 73 77 81 83 87 88 91 94 96 90 89 90 93 84 60 63 69 56 53 46 37 35 40 26 20 26 33 37 47 42 46 34 33 34 36 33 37 35 28 23 26
77 82 76 76 76 76 77 72 78 84 84 86 87 95 96 90 89 96 94 77 56 59 63 52 55 54 47 40 42 30 21 29 34 38 43 40 31 32 32 29 34 38 39 35 33 22 29
74 78 84 79 76 77 76 75 76 80 84 86 87 94 96 90 92 86 89 70 69 69 69 54 59 49 41 28 30 24 21 24 36 35 39 36 32 35 37 37 36 41 32 30 32 28 30
74 75 79 82 81 75 75 79 79 78 82 86 90 94 97 88 80 92 71 67 71 74 63 28 48 30 26 26 26 25 19 24 28 35 34 34 35 36 36 33 32 33 31 33 38 37 42
74 72 73 77 84 78 76 79 79 77 83 83 90 94 96 92 95 80 72 77 80 81 68 39 38 32 30 27 28 23 21 24 26 34 38 34 33 33 31 33 31 29 37 41 51 49 60
74 73 72 72 80 89 76 77 80 79 78 83 88 93 96 79 83 85 83 88 93 92 34 43 38 31 30 33 28 29 26 34 37 42 44 37 36 35 37 36 35 34 40 48 48 68 62
77 74 73 72 77 83 84 75 77 79 77 78 86 95 95 78 87 88 90 96 94 67 62 44 34 34 32 31 31 32 31 32 31 36 47 42 48 40 41 36 41 47 40 58 48 72 53
79 77 75 74 74 78 81 77 75 81 81 83 87 97 99 90 81 89 98 99 78 63 50 32 34 38 39 32 30 33 33 34 27 33 37 56 46 48 42 39 36 43 46 43 75 86 82
82 79 77 76 73 78 80 80 74 78 81 83 98 95 91 79 78 87 99 78 67 54 51 49 40 37 41 37 34 34 35 29 28 28 32 44 45 50 44 44 42 40 38 52 68 68 70
82 81 77 76 76 87 84 82 74 78 80 81 97 98 80 82 82 96 93 74 62 46 50 61 56 42 37 37 36 37 32 26 29 33 36 51 40 45 51 47 40 43 42 45 49 66 64
84 84 78 77 76 86 85 82 75 74 79 85 94 95 94 82 99 85 81 68 60 50 52 58 61 58 44 37 36 36 33 28 31 45 41 47 52 70 42 42 39 45 45 44 68 48 84
86 86 80 77 77 87 90 89 79 74 79 88 94 90 93 77 95 93 70 63 60 53 53 58 60 54 48 40 38 38 37 41 47 42 47 49 59 72 50 42 43 45 40 48 56 71 66
88 88 83 77 77 84 84 88 78 76 73 91 95 97 98 94 67 69 73 72 72 56 56 57 61 59 58 46 43 45 47 53 54 48 70 49 52 52 61 46 44 53 44 45 50 78 66
88 89 85 78 77 79 80 80 78 72 74 91 97 78 77 96 89 80 63 64 72 67 58 51 59 63 65 64 54 54 61 59 53 66 57 48 50 47 43 38 45 41 41 44 44 48 56
91 90 86 79 78 75 78 79 76 74 74 96 96 89 80 87 70 77 71 68 63 63 63 58 49 50 47 62 49 48 55 58 53 56 54 57 56 62 66 54 52 49 42 43 45 43 46
90 90 86 80 79 78 79 81 75 76 78 98 90 85 90 75 76 78 72 64 59 59 57 47 46 48 64 55 48 47 56 54 48 53 61 60 73 73 62 67 62 68 53 45 41 38 40
92 88 86 83 81 81 81 83 79 78 80 97 87 93 99 84 79 71 60 60 57 56 56 47 43 57 52 61 57 54 60 65 72 78 62 73 72 81 80 73 76 49 44 39 43 45 44
91 87 86 82 80 83 83 78 78 77 76 96 96 93 98 98 71 69 67 62 55 50 54 45 52 39 55 61 74 75 81 72 67 70 78 68 83 87 77 81 59 46 40 43 43 48 48
89 88 85 81 82 81 77 76 80 80 80 92 94 96 97 99 77 61 69 59 67 62 62 69 42 74 72 89 90 76 81 72 76 70 64 69 84 82 90 74 72 57 44 36 41 64 46
89 88 83 79 78 76 76 80 80 80 79 91 95 93 94 98 88 68 76 69 53 58 63 74 82 83 76 98 92 83 78 62 74 75 76 89 93 87 97 83 68 47 42 32 48 51 53
88 82 79 79 78 79 80 82 81 82 88 92 92 96 95 95 91 93 83 70 58 54 69 76 85 90 97 90 89 90 89 82 79 70 70 77 90 93 94 84 65 48 48 42 51 65 58
82 80 78 77 77 79 80 82 83 82 82 85 95 95 93 98 94 84 75 72 84 47 50 94 67 82 85 92 98 97 94 95 84 88 74 64 72 81 72 73 56 54 47 48 59 56 57

GFSGBSN_sfc_rhum_030.txt.gz
RH
73 71 78 80 80 80 76 78 84 91 90 93 96 93 91 90 89 90 91 91 91 89 87 85 85 84 83 50 30 62 84 78 65 40 35 27 36 37 36 28 27 26 22 28 44 54 54
76 71 75 78 81 78 75 78 83 89 90 91 93 96 94 91 90 90 91 91 91 91 89 86 85 82 80 26 33 56 64 46 43 35 30 28 32 31 32 32 25 23 30 46 52 52 49
73 78 78 78 79 83 81 83 84 85 87 92 93 97 96 93 91 90 91 91 91 91 89 87 84 77 79 26 44 49 41 40 35 30 31 31 32 33 33 30 28 36 46 46 53 50 44
74 76 76 80 80 76 79 83 84 85 86 86 90 94 97 96 92 90 91 91 91 90 89 87 82 86 70 37 50 47 43 35 28 30 28 24 29 32 35 28 28 30 36 37 52 50 45
80 66 71 77 81 81 82 71 84 86 86 86 87 89 95 97 94 92 91 91 91 90 88 87 93 90 48 38 38 35 34 30 26 26 25 20 30 35 31 35 33 32 35 31 50 45 45
72 80 70 74 74 80 81 81 71 84 87 88 88 89 90 97 95 92 90 90 89 87 84 77 70 59 31 30 32 33 43 28 30 31 32 34 38 39 40 36 38 42 39 53 36 41 52
68 71 75 77 73 75 76 78 81 85 86 89 89 91 92 95 94 89 90 87 67 78 81 48 33 28 27 31 37 28 34 33 33 31 41 42 41 43 35 35 35 37 40 42 33 26 49
74 72 72 77 81 70 74 77 80 81 77 84 89 88 90 94 94 89 93 84 64 71 75 58 53 44 37 41 50 34 28 32 38 41 47 42 48 35 34 38 37 39 41 37 31 24 43
72 75 74 73 74 80 75 74 78 80 83 81 85 85 86 96 92 94 93 75 62 72 78 50 53 53 48 44 47 42 25 32 36 40 46 45 34 35 34 33 35 38 41 40 34 27 36
74 74 75 73 74 77 81 75 75 76 81 86 82 86 87 96 93 93 88 75 72 74 62 46 56 53 47 45 37 30 24 28 41 34 43 44 35 34 38 37 35 42 35 39 34 30 35
77 76 74 75 73 76 83 79 74 76 74 81 85 86 88 93 90 95 78 68 77 72 62 29 56 37 42 30 28 29 22 26 34 38 38 38 41 40 41 36 35 36 36 41 39 40 46
78 77 76 75 75 75 81 86 77 75 78 75 76 84 89 98 92 87 72 81 80 78 56 32 42 45 36 30 30 26 25 25 28 35 42 38 35 37 33 34 32 35 40 37 49 50 58
80 79 78 76 75 76 77 80 85 77 77 77 79 83 93 85 84 88 80 89 99 92 35 34 48 38 35 36 31 28 32 37 37 44 48 42 37 37 40 40 39 38 41 48 45 66 62
80 81 80 78 77 75 75 77 85 79 81 78 80 85 89 86 77 89 92 96 98 64 48 45 40 38 35 32 31 34 32 40 39 36 49 44 44 42 39 36 36 47 41 58 45 69 48
81 82 81 80 77 76 74 74 83 86 80 79 82 94 94 86 84 80 96 99 77 64 50 42 37 40 40 33 33 34 37 37 33 35 37 52 45 50 48 45 40 46 49 42 74 88 80
81 82 82 81 79 77 75 76 82 88 80 80 95 95 90 84 87 84 97 82 66 49 51 54 42 40 46 41 35 35 41 34 31 33 36 43 44 50 46 48 47 43 44 55 69 64 68
82 81 82 82 83 78 77 75 81 88 77 81 94 96 73 83 93 99 92 73 62 51 51 61 69 59 42 42 38 43 39 32 31 32 35 47 39 41 53 46 39 48 49 52 53 66 64
88 84 82 82 84 80 79 77 77 81 80 84 94 96 85 89 99 86 84 70 58 53 53 57 63 68 58 43 43 41 38 32 32 43 39 46 48 60 40 42 42 43 46 52 71 54 83
83 85 85 84 85 84 82 78 78 80 81 82 95 90 94 74 91 89 69 67 61 54 54 63 64 63 57 50 43 43 40 36 48 39 44 50 53 64 46 42 49 48 47 48 58 72 69
80 83 86 89 88 86 83 78 78 80 81 85 96 98 94 92 63 66 74 70 67 58 58 55 63 66 63 59 49 43 41 53 54 42 66 48 58 48 47 42 45 56 46 55 53 77 67
81 80 83 85 90 87 84 80 82 79 81 89 97 90 72 96 90 74 63 65 69 62 56 60 65 68 62 67 55 56 62 64 57 71 56 44 48 54 47 41 44 44 43 52 49 52 57
81 82 83 84 90 87 84 82 88 84 81 94 99 90 78 76 72 74 74 66 67 58 60 62 67 60 66 72 53 52 64 62 54 59 56 57 56 59 63 58 55 58 47 49 51 51 51
80 80 82 84 90 86 84 87 89 82 84 98 94 91 96 72 75 74 72 64 62 60 56 54 54 56 70 52 44 51 48 59 60 60 65 58 72 70 61 74 59 66 56 49 51 47 45
82 80 82 83 89 87 85 82 82 81 78 95 83 92 97 93 81 71 63 63 61 59 66 54 57 58 48 57 58 58 62 74 73 78 64 71 69 79 79 75 72 47 49 45 46 44 44
83 83 82 81 89 87 85 84 79 80 75 85 91 91 97 96 74 71 66 61 61 56 62 59 48 46 58 62 74 76 83 75 76 76 78 68 80 83 76 79 58 50 44 46 46 42 46
84 83 85 87 89 86 84 87 81 77 74 76 98 98 98 100 88 59 64 61 70 71 70 70 50 61 67 81 90 84 87 76 79 74 68 70 78 77 86 76 73 58 44 40 39 54 48
83 84 92 90 88 86 82 84 82 78 75 79 95 91 98 99 88 78 71 70 58 63 76 69 67 85 71 93 92 86 81 70 81 79 84 90 95 86 97 83 74 54 41 38 50 51 53
85 91 89 89 88 84 80 80 80 78 77 84 84 94 96 96 84 81 89 72 63 61 72 79 82 91 97 86 93 88 90 84 80 73 79 83 92 92 92 83 76 47 50 47 52 68 60
91 90 89 88 85 83 81 80 79 80 78 77 92 86 92 99 95 88 80 77 77 56 55 77 66 87 85 91 98 97 92 96 81 83 74 69 73 80 72 74 59 55 52 48 56 60 61

GFSGBSN_sfc_rhum_033.txt.gz
RH
70 73 75 72 67 70 72 75 81 84 89 90 90 92 95 95 92 91 90 91 91 90 88 86 85 84 73 38 18 64 83 75 60 35 22 21 24 25 25 22 20 23 19 20 22 45 47
75 75 75 77 76 67 68 77 82 84 86 85 88 92 93 96 94 92 91 91 91 91 90 87 86 82 64 28 36 58 59 48 37 29 24 23 24 24 26 26 20 20 23 38 46 45 45
80 77 79 81 79 76 68 67 75 82 85 86 86 89 92 95 97 94 92 91 91 91 90 87 85 76 69 27 39 51 39 32 34 26 21 22 24 23 24 26 22 27 35 38 41 44 43
69 74 81 79 79 77 79 70 67 76 84 86 86 87 88 90 95 97 93 92 92 91 90 88 83 81 54 31 40 41 39 32 29 28 23 20 23 25 26 25 22 23 28 28 39 47 45
70 70 74 80 79 79 78 82 79 66 79 85 87 88 88 90 92 97 95 92 91 89 88 87 87 83 36 34 29 30 32 29 26 23 22 18 22 27 25 26 25 27 23 25 36 40 40
67 70 69 74 79 82 77 79 80 78 69 82 84 88 90 91 93 97 94 90 88 84 84 76 70 58 28 22 27 34 36 26 24 26 26 26 30 28 29 25 29 31 29 26 28 35 38
64 63 65 71 71 78 82 76 80 82 80 80 81 85 90 89 94 95 86 77 59 70 82 54 40 31 20 26 34 26 34 29 25 27 32 33 30 31 26 31 26 28 30 30 25 21 38
75 71 65 66 71 73 73 83 78 81 82 80 79 82 86 86 95 92 86 78 58 64 77 59 55 44 35 36 42 34 30 32 34 34 35 35 40 31 28 31 30 32 31 30 27 24 35
75 77 76 70 66 71 73 77 85 78 80 79 80 80 83 83 94 94 88 72 64 66 86 59 54 51 45 38 43 38 28 31 33 37 39 38 27 31 32 33 34 31 30 32 30 23 28
76 76 76 75 74 73 73 72 78 84 77 80 76 83 85 88 96 86 85 68 72 71 70 44 50 48 48 43 39 32 24 27 32 35 40 35 31 31 32 30 29 31 29 30 33 26 25
79 78 77 77 76 76 76 74 75 84 78 77 79 80 84 92 92 87 70 72 79 71 63 32 56 36 46 33 26 32 24 26 35 36 35 34 33 34 34 32 30 30 30 31 29 30 36
79 79 79 78 78 77 76 76 75 79 88 75 78 78 84 92 95 84 77 78 81 75 68 28 46 52 50 33 27 25 24 26 28 34 32 32 27 29 28 29 30 29 32 31 39 39 43
81 81 79 80 79 79 77 77 76 77 83 80 79 77 78 80 87 83 78 84 94 95 40 30 47 41 42 34 31 28 32 35 33 42 42 32 30 27 32 30 30 30 34 39 32 47 44
81 81 81 80 80 80 79 78 77 79 83 87 79 80 80 77 84 86 86 93 94 63 47 37 37 39 42 31 31 30 34 35 32 31 40 34 38 34 33 29 30 35 34 46 42 47 32
82 82 81 82 81 81 81 79 78 78 81 88 80 92 92 88 80 87 95 97 69 62 48 40 32 41 37 31 29 33 37 34 30 32 35 48 37 36 38 35 28 36 39 36 60 73 60
82 82 82 82 82 82 82 80 78 78 79 86 96 94 84 85 86 98 97 72 69 48 46 51 36 40 45 39 36 34 40 34 32 32 32 40 38 40 40 36 39 34 35 46 53 54 57
83 83 83 82 82 82 83 82 79 78 79 82 95 97 69 79 88 98 86 75 59 51 48 55 63 55 43 43 39 42 38 31 30 31 30 41 37 37 41 39 34 40 42 44 42 51 49
84 84 85 84 81 83 83 83 81 78 81 92 96 96 81 75 97 87 76 65 61 48 52 56 58 64 62 44 44 43 40 33 33 36 36 39 49 54 36 34 32 35 39 43 57 49 59
84 92 89 87 86 83 84 83 83 79 82 95 99 91 88 74 92 83 68 63 56 58 54 61 62 59 57 54 46 44 41 37 45 37 42 45 46 49 37 35 38 40 39 42 49 56 59
81 88 93 90 88 84 84 86 85 81 80 93 98 98 99 93 63 68 73 68 63 57 54 55 59 58 56 59 51 44 45 45 50 39 64 42 50 45 41 35 39 48 43 43 44 60 54
80 79 79 83 88 92 86 89 86 82 80 93 98 90 88 96 87 80 65 60 70 67 54 54 61 60 63 62 58 53 50 58 53 67 50 46 47 49 39 33 38 39 40 46 41 44 52
83 80 78 78 83 85 90 90 87 83 81 94 98 93 82 77 68 75 76 70 65 59 53 62 53 54 56 65 51 55 55 58 54 59 54 52 50 51 47 45 41 45 39 43 43 42 41
83 83 84 78 79 78 90 90 87 86 85 96 96 89 81 71 74 80 70 66 62 60 57 47 58 64 64 51 54 56 50 51 53 54 61 58 68 61 52 58 54 66 55 44 43 40 41
83 82 84 81 81 77 84 91 89 86 84 93 90 94 93 78 79 75 63 56 59 61 65 50 55 64 55 57 59 58 61 68 65 66 59 66 66 68 73 70 75 40 39 36 39 39 37
86 88 82 82 82 81 84 91 89 86 82 84 90 91 95 83 70 76 65 61 57 57 62 56 58 53 59 60 66 59 83 76 74 67 65 60 72 75 80 65 51 38 40 42 43 31 35
87 84 82 82 82 79 84 91 87 84 85 80 94 94 96 82 81 62 68 59 66 74 68 70 61 63 65 80 87 76 80 73 74 68 62 66 69 71 74 72 68 51 36 37 32 44 37
86 86 82 83 82 82 90 89 85 84 84 76 99 92 96 99 88 89 73 73 57 64 72 75 69 76 63 90 97 89 83 65 75 82 84 82 82 76 78 82 65 45 36 35 50 42 45
89 83 83 82 82 85 88 88 89 85 80 73 97 91 93 98 88 86 85 77 62 60 74 77 73 78 94 86 92 84 89 79 75 71 76 75 80 88 80 90 69 44 38 48 47 46 49
85 85 83 81 83 89 88 87 85 86 82 71 97 96 94 94 96 92 87 82 74 47 55 72 65 67 78 86 92 90 98 97 75 73 66 75 69 73 66 66 57 46 45 42 44 45 53